Regional Weather Roundup
Issued by NWS Newport/Morehead, NC

Current Version | Previous Version | Text Only | Print | Product List | Glossary Off
Versions: 1 2 3 4 5 6 7 8 9 10 11 12 13 14 15 16 17 18 19 20 21 22 23 24 25 26 27 28 29 30 31 32 33 34 35 36 37 38 39 40 41 42 43 44 45 46 47 48 49 50
000 ASUS42 KMHX 201213 RWRMHX WEATHER ROUNDUP FOR EASTERN NORTH CAROLINA NATIONAL WEATHER SERVICE NEWPORT/MOREHEAD CITY NC 700 AM EST FRI JAN 20 2017 NOTE: "FAIR" INDICATES FEW OR NO CLOUDS BELOW 12,000 FEET WITH NO SIGNIFICANT WEATHER AND/OR OBSTRUCTIONS TO VISIBILITY NCZ015>017-031-032-045>047-102-103-201300- NORTH COAST CITY SKY/WX TMP DP RH WIND PRES REMARKS EDENTON CLOUDY 47 43 85 CALM 29.97F ELIZABETH CITY CLOUDY 44 42 93 E6 29.98F KITTY HAWK NOT AVBL MANTEO CLOUDY 42 42 100 CALM 29.99F $$ NCZ045>047-081-094-103-104-201300- CENTRAL COAST CITY SKY/WX TMP DP RH WIND PRES REMARKS FRISCO CLOUDY 49 44 83 NE6 29.98R $$ NCZ095-097-098-100-101-201300- SOUTHERN COAST CITY SKY/WX TMP DP RH WIND PRES REMARKS BEAUFORT CLOUDY 50 48 93 NE5 29.96R CEDAR ISLAND NOT AVBL JACKSONVILLE CLOUDY 50 48 93 E6 29.93F PINEY ISLAND CLOUDY N/A N/A N/A E8 29.95F WILMINGTON CLOUDY 56 53 90 E6 29.92F $$ NCZ011>013-027>030-043-044-078>080-089-090>093-098-201300- COASTAL PLAIN CITY SKY/WX TMP DP RH WIND PRES REMARKS AHOSKIE CLOUDY 42 40 92 CALM 29.96F CLINTON CLOUDY 50 47 88 E3 29.93S ELIZABETHTOWN CLOUDY 49 47 93 E3 29.93R GOLDSBORO CLOUDY 45 45 100 E5 29.92R GREENVILLE CLOUDY 43 43 100 CALM 29.98S FOG HAVELOCK CLOUDY 49 47 93 CALM 29.96S KENANSVILLE CLOUDY 46 45 93 CALM 29.94S KINSTON CLOUDY 45 43 93 CALM 29.95S NEW BERN CLOUDY 47 44 90 CALM 29.97R RICHLANDS CLOUDY 47 45 93 E7 29.93F ROCKY MOUNT MOCLDY 43 43 100 CALM 29.95S WASHINGTON CLOUDY 43 41 91 E3 N/A WHITEVILLE MOCLDY 51 48 89 CALM 29.91R $$ AMZ130-135-150-152-154-156-158-170-250-252-270-ANZ085-086-088-633-658-670-201300- MARINE OBSERVATIONS STATION/POSITION TIME TEMP WIND PRES WAVE SWELL AIR SEA DIR/SP/G HT/PER HT/PER (UTC) (F) (DEG/KT/KT) (MB) (FT/S) (FT/S) CHESAPEAKE LIGHT NOT AVBL 64 E VA BEACH 1150 52 56 240/ 2/ 6 1015.2 5/11 5/11 DUCK 1148 46 45 160/ 4/ 4 1015.1 2 E DUCK 1130 45 N/A 4/11 2/11 OREGON INLET 1142 45 49 CALM / 1 1015.6 13E OREGON INLT NOT AVBL HATTERAS CG 1148 50 55 70/ 5/ 7 1014.6 DIAMOND BUOY 1150 60 76 110/ 2/ 6 1015.2 5/11 5/11 CAPE LOOKOUT 1100 62 90/ 9/ 10 1013.7 BEAUFORT LAB 1148 50 50 10/ 4/ 4 1013.2 30 SE NEW RVR IN 1108 62 64 100/ 8/ 12 1013.6 30 SE NEW RVR IN 1143 63 N/A 3/13 2/13 27 SE WRIGHTSVLE 1108 66 71 90/ 12/ 17 1012.8 5 SE WRIGHTSVLE NOT AVBL 225 S CAPE HAT 1150 68 71 170/ 8/ 10 1015.3 5/11 5/11 41 SE CHARLESTON 1050 70 71 200/ 8/ 10 1012.1 2/ 9 2/ 9 $$

USA.gov is the U.S. government's official web portal to all federal, state and local government web resources and services.